N4XWC Weather Reports


time (UTC)temp
F
wind
direction
speed
knots
gust
knots
rain 1hr
in
rain 24hr
in
rain mn
in
humidity
%
barometer
mb
20260904044223 80 99 0.0 0.0 0.00 0.00 0.00 80 1014.1
20260904044156 80 99 0.0 0.0 0.00 0.00 0.00 80 1014.1
20260904043723 80 99 0.9 1.7 0.00 0.00 0.00 79 1014.1
20260904043222 80 93 0.9 0.9 0.00 0.00 0.00 79 1014.1
20260904043156 80 93 0.0 0.9 0.00 0.00 0.00 79 1014.1
20260904042723 80 90 0.9 1.7 0.00 0.00 0.00 79 1014.2
20260904042224 79 104 0.0 0.0 0.00 0.00 0.00 79 1014.2
20260904042159 79 89 0.0 0.0 0.00 0.00 0.00 78 1014.2
20260904041722 79 79 0.0 0.0 0.00 0.00 0.00 78 1014.2
20260904041223 79 69 1.7 1.7 0.00 0.00 0.00 79 1014.4
20260904041156 79 61 0.9 1.7 0.00 0.00 0.00 79 1014.4
20260904040724 79 72 1.7 1.7 0.00 0.00 0.00 79 1014.4
20260904040222 79 62 0.9 1.7 0.00 0.00 0.00 79 1014.4
20260904040157 79 65 0.9 1.7 0.00 0.00 0.00 79 1014.4
20260904035723 79 55 0.0 1.7 0.00 0.00 0.00 79 1014.6
20260904035223 78 69 0.9 1.7 0.00 0.00 0.00 80 1014.6
20260904035156 78 64 0.0 1.7 0.00 0.00 0.00 80 1014.6
20260904034722 78 76 1.7 1.7 0.00 0.00 0.00 80 1014.6
20260904034223 78 93 0.9 2.6 0.00 0.00 0.00 81 1014.6
20260904034156 78 59 2.6 2.6 0.00 0.00 0.00 81 1014.6
20260904033723 78 56 1.7 2.6 0.00 0.00 0.00 81 1014.6
20260904033222 78 90 1.7 2.6 0.00 0.00 0.00 82 1014.6
20260904033157 78 100 0.9 1.7 0.00 0.00 0.00 82 1014.6
20260904032723 78 65 2.6 2.6 0.00 0.00 0.00 83 1014.8
20260904032223 78 71 2.6 2.6 0.00 0.00 0.00 84 1014.8
20260904032158 78 64 0.9 2.6 0.00 0.00 0.00 84 1014.8
20260904031722 78 52 0.9 2.6 0.00 0.00 0.00 85 1014.8
20260904031223 78 83 0.0 0.0 0.00 0.00 0.00 84 1015.0
20260904031156 78 83 0.0 0.0 0.00 0.00 0.00 84 1015.0
20260904030723 78 119 0.0 0.0 0.00 0.00 0.00 84 1015.0
20260904030222 78 119 0.9 0.9 0.00 0.00 0.00 84 1015.0
20260904030157 78 119 0.0 0.0 0.00 0.00 0.00 84 1015.0
20260904025723 78 119 0.0 0.0 0.00 0.00 0.00 83 1014.9
20260904025223 78 119 0.0 0.0 0.00 0.00 0.00 83 1014.9
20260904025156 78 119 0.0 0.9 0.00 0.00 0.00 83 1014.9
20260904024722 79 119 0.9 1.7 0.00 0.00 0.00 82 1014.9
20260904024227 79 119 0.9 0.9 0.00 0.00 0.00 82 1014.8
20260904024223 79 119 0.0 0.9 0.00 0.00 0.00 82 1014.8
20260904024156 79 119 0.9 0.9 0.00 0.00 0.00 82 1014.8
20260904023723 79 119 0.0 0.0 0.00 0.00 0.00 82 1014.8
20260904023222 79 116 1.7 1.7 0.00 0.00 0.00 83 1014.8
20260904023157 79 119 0.9 1.7 0.00 0.00 0.00 83 1014.8
20260904022723 79 152 0.0 0.0 0.00 0.00 0.00 83 1014.6
20260904022223 80 152 0.0 1.7 0.00 0.00 0.00 82 1014.6
20260904022156 80 152 0.0 0.0 0.00 0.00 0.00 82 1014.6
20260904021722 80 212 0.0 0.0 0.00 0.00 0.00 81 1014.6
20260904021223 80 62 0.0 0.0 0.00 0.00 0.00 80 1014.6
20260904021156 80 62 0.0 0.0 0.00 0.00 0.00 80 1014.6
20260904020723 81 62 0.0 0.0 0.00 0.00 0.00 78 1014.6
20260904020222 81 62 0.0 0.0 0.00 0.00 0.00 77 1014.6
20260904020157 81 62 0.0 0.0 0.00 0.00 0.00 76 1014.6
20260904015723 81 62 0.0 0.0 0.00 0.00 0.00 73 1014.4
20260904015223 82 62 0.0 0.0 0.00 0.00 0.00 73 1014.4
20260904015156 82 62 0.0 0.0 0.00 0.00 0.00 73 1014.4
20260904014722 82 62 0.0 0.0 0.00 0.00 0.00 72 1014.4
20260904014223 82 90 2.6 2.6 0.00 0.00 0.00 71 1014.2
20260904014156 82 90 2.6 2.6 0.00 0.00 0.00 71 1014.2
20260904013723 82 92 2.6 2.6 0.00 0.00 0.00 72 1014.2
20260904013224 82 62 0.9 2.6 0.00 0.00 0.00 71 1014.2
20260904013156 82 88 1.7 1.7 0.00 0.00 0.00 71 1014.2
20260904012722 82 78 0.9 2.6 0.00 0.00 0.00 70 1014.0
20260904012223 83 110 1.7 1.7 0.00 0.00 0.00 70 1014.0
20260904012156 83 96 1.7 2.6 0.00 0.00 0.00 70 1014.0
20260904011724 83 76 1.7 2.6 0.00 0.00 0.00 69 1014.0
20260904011222 83 106 2.6 2.6 0.00 0.00 0.00 71 1014.0
20260904011156 83 80 1.7 2.6 0.00 0.00 0.00 71 1014.0
20260904010723 83 89 1.7 2.6 0.00 0.00 0.00 71 1014.0
20260904010223 83 78 1.7 1.7 0.00 0.00 0.00 70 1014.0
20260904010156 83 92 0.0 1.7 0.00 0.00 0.00 70 1014.0
20260904005722 83 79 0.9 2.6 0.00 0.00 0.00 69 1014.0
20260904005223 83 86 1.7 2.6 0.00 0.00 0.00 69 1014.0
20260904005155 83 80 2.6 3.5 0.00 0.00 0.00 69 1014.0
20260904004723 83 73 1.7 1.7 0.00 0.00 0.00 69 1014.0
20260904004222 83 72 0.9 1.7 0.00 0.00 0.00 70 1013.8
20260904004157 83 66 0.9 1.7 0.00 0.00 0.00 70 1013.8
20260904003723 83 72 1.7 1.7 0.00 0.00 0.00 70 1013.8
20260904003222 83 64 1.7 2.6 0.00 0.00 0.00 71 1013.8
20260904003157 83 76 0.9 1.7 0.00 0.00 0.00 71 1013.8
20260904002723 83 82 0.9 2.6 0.00 0.00 0.00 70 1013.8
20260904002223 83 106 1.7 3.5 0.00 0.00 0.00 72 1013.8
20260904002156 83 99 2.6 3.5 0.00 0.00 0.00 72 1013.8
20260904001722 83 78 1.7 1.7 0.00 0.00 0.00 73 1013.8
20260904001224 83 73 0.9 1.7 0.00 0.00 0.00 71 1013.8
20260904001156 83 65 0.9 1.7 0.00 0.00 0.00 71 1013.8
20260904000722 84 93 0.9 1.7 0.00 0.00 0.00 71 1013.8
20260904000223 84 121 1.7 2.6 0.00 0.00 0.00 71 1013.8
20260904000156 84 80 2.6 2.6 0.00 0.00 0.00 71 1013.8
20260903235724 84 66 1.7 2.6 0.00 0.00 0.00 72 1013.7
20260903235224 84 68 0.0 0.9 0.00 0.00 0.00 72 1013.7
20260903235157 84 51 0.0 0.9 0.00 0.00 0.00 72 1013.7
20260903234723 84 72 0.9 2.6 0.00 0.00 0.00 73 1013.7
20260903234223 84 82 1.7 2.6 0.00 0.00 0.00 72 1013.7
20260903234156 84 64 0.9 2.6 0.00 0.00 0.00 72 1013.7
20260903233724 85 99 0.9 2.6 0.00 0.00 0.00 71 1013.7
20260903233223 85 64 2.6 4.3 0.00 0.00 0.00 71 1013.7
20260903233157 85 41 1.7 2.6 0.00 0.00 0.00 71 1013.7
20260903232723 85 23 1.7 2.6 0.00 0.00 0.00 71 1013.6
20260903232224 86 88 1.7 3.5 0.00 0.00 0.00 70 1013.6
20260903232157 86 83 2.6 4.3 0.00 0.00 0.00 70 1013.6
20260903231722 86 65 0.9 3.5 0.00 0.00 0.00 70 1013.6
20260903231223 86 66 2.6 2.6 0.00 0.00 0.00 69 1013.6
20260903231156 86 66 2.6 3.5 0.00 0.00 0.00 69 1013.6
20260903230723 86 112 0.0 1.7 0.00 0.00 0.00 69 1013.6
20260903230222 87 32 2.6 5.2 0.00 0.00 0.00 69 1013.6
20260903230155 87 58 1.7 5.2 0.00 0.00 0.00 69 1013.6
20260903225722 88 89 7.0 8.7 0.00 0.00 0.00 67 1013.4
20260903225222 88 7 0.9 5.2 0.00 0.00 0.00 66 1013.4
20260903225155 88 66 3.5 3.5 0.00 0.00 0.00 66 1013.4
20260903224723 89 72 2.6 6.1 0.00 0.00 0.00 65 1013.4
20260903224222 90 44 1.7 2.6 0.00 0.00 0.00 67 1013.3
20260903224157 90 52 1.7 5.2 0.00 0.00 0.00 66 1013.3
20260903223722 90 112 3.5 9.6 0.00 0.00 0.00 68 1013.3
20260903223222 91 93 3.5 3.5 0.00 0.00 0.00 69 1013.3
20260903223157 91 71 0.9 1.7 0.00 0.00 0.00 69 1013.3
20260903222723 91 69 0.9 0.9 0.00 0.00 0.00 65 1013.2
20260903222223 92 27 1.7 2.6 0.00 0.00 0.00 65 1013.2
20260903222156 92 75 0.9 4.3 0.00 0.00 0.00 65 1013.2
20260903221722 92 107 1.7 3.5 0.00 0.00 0.00 66 1013.2
20260903221223 92 58 2.6 2.6 0.00 0.00 0.00 66 1013.0
20260903221156 92 88 2.6 3.5 0.00 0.00 0.00 65 1013.0
20260903220722 92 85 0.9 2.6 0.00 0.00 0.00 62 1013.0
20260903220223 92 124 0.9 1.7 0.00 0.00 0.00 59 1013.0
20260903220156 92 126 1.7 3.5 0.00 0.00 0.00 59 1013.0
20260903215724 92 93 2.6 2.6 0.00 0.00 0.00 60 1013.0
20260903215222 92 126 3.5 3.5 0.00 0.00 0.00 61 1013.0
20260903215157 92 86 3.5 4.3 0.00 0.00 0.00 61 1013.0
20260903214723 92 104 1.7 3.5 0.00 0.00 0.00 60 1013.0
20260903214223 92 59 0.9 2.6 0.00 0.00 0.00 60 1012.9
20260903214155 92 56 3.5 3.5 0.00 0.00 0.00 60 1012.9
20260903213723 93 54 2.6 3.5 0.00 0.00 0.00 60 1012.9
20260903213224 93 119 0.0 3.5 0.00 0.00 0.00 60 1012.9
20260903213156 93 112 3.5 3.5 0.00 0.00 0.00 58 1012.9
20260903212722 93 124 1.7 2.6 0.00 0.00 0.00 60 1012.9
20260903212223 94 82 0.9 1.7 0.00 0.00 0.00 60 1012.9
20260903212157 94 112 1.7 2.6 0.00 0.00 0.00 60 1012.9
20260903211724 94 109 0.9 3.5 0.00 0.00 0.00 58 1012.9
20260903211222 94 102 0.0 0.9 0.00 0.00 0.00 58 1013.0
20260903211155 94 100 0.9 0.9 0.00 0.00 0.00 58 1013.0
20260903210723 94 75 3.5 3.5 0.00 0.00 0.00 57 1013.0
20260903210224 94 104 2.6 3.5 0.00 0.00 0.00 57 1013.0
20260903210157 94 117 2.6 3.5 0.00 0.00 0.00 57 1013.0
20260903205722 95 140 2.6 4.3 0.00 0.00 0.00 57 1013.2
20260903205236 95 144 0.0 1.7 0.00 0.00 0.00 54 1013.2
20260903205223 95 148 1.7 2.6 0.00 0.00 0.00 54 1013.2
20260903205155 95 144 0.0 1.7 0.00 0.00 0.00 54 1013.2
20260903204723 95 100 1.7 3.5 0.00 0.00 0.00 54 1013.2
20260903204222 95 34 0.9 1.7 0.00 0.00 0.00 56 1013.3
20260903204157 95 34 1.7 1.7 0.00 0.00 0.00 56 1013.3
20260903203723 95 93 2.6 3.5 0.00 0.00 0.00 56 1013.3
20260903203223 95 131 1.7 1.7 0.00 0.00 0.00 57 1013.3
20260903203156 95 18 0.0 0.0 0.00 0.00 0.00 57 1013.3
20260903202722 94 18 0.0 0.9 0.00 0.00 0.00 54 1013.6
20260903202223 94 80 2.6 2.6 0.00 0.00 0.00 58 1013.6
20260903202155 94 41 2.6 2.6 0.00 0.00 0.00 58 1013.6
20260903201723 94 93 1.7 3.5 0.00 0.00 0.00 58 1013.6
20260903201222 94 169 1.7 2.6 0.00 0.00 0.00 58 1013.9
20260903201157 94 152 1.7 4.3 0.00 0.00 0.00 58 1013.9
20260903200723 94 186 0.9 2.6 0.00 0.00 0.00 58 1013.9
20260903200222 94 66 0.0 1.7 0.00 0.00 0.00 58 1013.9
20260903200156 94 37 0.0 2.6 0.00 0.00 0.00 58 1013.9
20260903195723 94 13 1.7 1.7 0.00 0.00 0.00 58 1014.2
20260903195223 94 48 0.9 1.7 0.00 0.00 0.00 58 1014.2
20260903195155 94 27 0.9 3.5 0.00 0.00 0.00 58 1014.2
20260903194722 94 48 1.7 4.3 0.00 0.00 0.00 59 1014.2
20260903194223 94 85 1.7 1.7 0.00 0.00 0.00 59 1014.4
20260903194157 94 89 0.9 1.7 0.00 0.00 0.00 58 1014.4
20260903193723 94 64 1.7 1.7 0.00 0.00 0.00 59 1014.4
20260903193222 94 71 0.0 1.7 0.00 0.00 0.00 58 1014.4
20260903193156 94 65 1.7 1.7 0.00 0.00 0.00 58 1014.4
20260903192723 94 17 1.7 1.7 0.00 0.00 0.00 60 1014.5
20260903192223 94 229 0.0 0.9 0.00 0.00 0.00 61 1014.5
20260903192157 94 120 0.9 0.9 0.00 0.00 0.00 61 1014.5
20260903191724 94 114 0.9 0.9 0.00 0.00 0.00 63 1014.5
20260903191223 93 48 0.0 0.9 0.00 0.00 0.00 61 1014.6
20260903191156 93 48 0.0 0.9 0.00 0.00 0.00 61 1014.6
20260903190722 93 127 0.9 3.5 0.00 0.00 0.00 60 1014.6
20260903190223 93 97 1.7 2.6 0.00 0.00 0.00 63 1014.6
20260903190156 93 10 0.9 1.7 0.00 0.00 0.00 63 1014.6
20260903185723 93 172 0.9 0.9 0.00 0.00 0.00 61 1014.9
20260903185222 93 102 0.0 0.0 0.00 0.00 0.00 59 1014.9
20260903185157 93 86 0.0 0.0 0.00 0.00 0.00 59 1014.9
20260903184723 93 157 0.9 2.6 0.00 0.00 0.00 60 1014.9
20260903184223 93 137 5.2 5.2 0.00 0.00 0.00 63 1014.9
20260903184156 93 138 0.9 1.7 0.00 0.00 0.00 63 1014.9
20260903183724 93 96 0.0 0.0 0.00 0.00 0.00 61 1014.9
20260903183223 93 127 0.0 0.9 0.00 0.00 0.00 59 1014.9
20260903183155 93 82 0.9 1.7 0.00 0.00 0.00 59 1014.9
20260903182722 93 182 0.9 0.9 0.00 0.00 0.00 62 1015.0
20260903182233 93 124 0.9 1.7 0.00 0.00 0.00 58 1015.0
20260903182223 93 124 0.9 0.9 0.00 0.00 0.00 58 1015.0
20260903182156 93 124 0.9 1.7 0.00 0.00 0.00 58 1015.0
20260903181723 93 78 2.6 4.3 0.00 0.00 0.00 58 1015.0
20260903181222 93 93 0.9 1.7 0.00 0.00 0.00 58 1015.3
20260903181201 93 69 1.7 4.3 0.00 0.00 0.00 58 1015.3
20260903180723 93 107 0.0 3.5 0.00 0.00 0.00 56 1015.3
20260903180223 93 78 1.7 5.2 0.00 0.00 0.00 58 1015.3
20260903180156 93 90 5.2 5.2 0.00 0.00 0.00 57 1015.3
20260903175723 92 102 5.2 5.2 0.00 0.00 0.00 59 1015.4
20260903175222 93 215 0.0 0.9 0.00 0.00 0.00 64 1015.4
20260903175155 93 157 0.9 2.6 0.00 0.00 0.00 64 1015.4
20260903174723 93 134 1.7 2.6 0.00 0.00 0.00 63 1015.4
20260903174222 93 27 1.7 4.3 0.00 0.00 0.00 62 1015.5
20260903174157 93 88 3.5 4.3 0.00 0.00 0.00 63 1015.5
20260903173722 93 69 2.6 4.3 0.00 0.00 0.00 62 1015.5
20260903173223 93 155 1.7 2.6 0.00 0.00 0.00 61 1015.5
20260903173200 93 133 1.7 2.6 0.00 0.00 0.00 61 1015.5
20260903172722 92 38 1.7 2.6 0.00 0.00 0.00 61 1015.6
20260903172222 92 47 2.6 4.3 0.00 0.00 0.00 62 1015.6
20260903172155 92 354 4.3 5.2 0.00 0.00 0.00 62 1015.6
20260903171723 93 31 0.9 3.5 0.00 0.00 0.00 60 1015.6
20260903171224 93 192 2.6 4.3 0.00 0.00 0.00 60 1015.9
20260903171157 93 114 2.6 2.6 0.00 0.00 0.00 61 1015.9
20260903170722 92 114 2.6 2.6 0.00 0.00 0.00 60 1015.9
20260903170224 92 28 0.9 0.9 0.00 0.00 0.00 62 1015.9
20260903170156 92 56 0.9 1.7 0.00 0.00 0.00 60 1015.9
20260903165722 93 35 0.9 3.5 0.00 0.00 0.00 60 1016.1
20260903165223 93 96 2.6 4.3 0.00 0.00 0.00 62 1016.1
20260903165156 93 58 3.5 4.3 0.00 0.00 0.00 62 1016.1
20260903164724 92 127 0.0 0.9 0.00 0.00 0.00 63 1016.1
20260903164222 92 141 0.9 1.7 0.00 0.00 0.00 67 1016.3
20260903164155 92 72 1.7 1.7 0.00 0.00 0.00 65 1016.3
20260903163723 92 1 1.7 2.6 0.00 0.00 0.00 66 1016.3
20260903163224 92 28 0.0 1.7 0.00 0.00 0.00 65 1016.3
20260903163156 92 140 0.9 0.9 0.00 0.00 0.00 65 1016.3
20260903162722 92 113 2.6 2.6 0.00 0.00 0.00 67 1016.5
20260903162223 92 88 0.9 2.6 0.00 0.00 0.00 66 1016.5
20260903162155 92 78 2.6 2.6 0.00 0.00 0.00 66 1016.5
20260903161723 92 79 1.7 2.6 0.00 0.00 0.00 66 1016.5
20260903161223 92 8 1.7 2.6 0.00 0.00 0.00 66 1016.6
20260903161156 92 35 0.9 1.7 0.00 0.00 0.00 66 1016.6
20260903160724 92 1 1.7 3.5 0.00 0.00 0.00 66 1016.6
20260903160222 92 340 0.0 0.9 0.00 0.00 0.00 67 1016.6
20260903160155 92 340 0.9 0.9 0.00 0.00 0.00 67 1016.6
20260903155723 92 326 0.9 1.7 0.00 0.00 0.00 67 1016.6
20260903155223 92 3 1.7 2.6 0.00 0.00 0.00 66 1016.6
20260903155201 92 335 0.9 1.7 0.00 0.00 0.00 66 1016.6
20260903154722 92 311 0.9 1.7 0.00 0.00 0.00 66 1016.6
20260903154223 91 357 0.0 1.7 0.00 0.00 0.00 64 1016.6
20260903154156 91 350 0.9 0.9 0.00 0.00 0.00 64 1016.6
20260903153723 91 329 1.7 1.7 0.00 0.00 0.00 64 1016.6
20260903153222 91 344 0.0 0.0 0.00 0.00 0.00 63 1016.6
20260903153200 91 344 0.0 0.9 0.00 0.00 0.00 63 1016.6
20260903152724 91 326 1.7 2.6 0.00 0.00 0.00 64 1016.6
20260903152223 91 326 2.6 2.6 0.00 0.00 0.00 63 1016.6
20260903152159 91 311 0.9 1.7 0.00 0.00 0.00 63 1016.6
20260903151724 91 0 1.7 1.7 0.00 0.00 0.00 61 1016.6
20260903151222 90 357 0.0 0.9 0.00 0.00 0.00 63 1016.4
20260903151155 90 357 0.9 1.7 0.00 0.00 0.00 63 1016.4
20260903150723 90 330 0.9 0.9 0.00 0.00 0.00 71 1016.4
20260903150223 90 344 0.9 1.7 0.00 0.00 0.00 70 1016.4
20260903150156 90 350 0.0 1.7 0.00 0.00 0.00 69 1016.4
20260903145722 89 315 0.0 0.9 0.00 0.00 0.00 70 1016.1
20260903145251 89 0 0.9 2.6 0.00 0.00 0.00 73 1016.1
20260903145222 89 0 1.7 1.7 0.00 0.00 0.00 73 1016.1
20260903145155 89 0 0.9 2.6 0.00 0.00 0.00 73 1016.1
20260903144722 89 316 0.0 0.0 0.00 0.00 0.00 72 1016.1
20260903144354 89 316 0.0 0.0 0.00 0.00 0.00 71 1016.1
20260903144223 89 316 0.0 0.0 0.00 0.00 0.00 72 1016.1
20260903144157 89 316 0.0 0.0 0.00 0.00 0.00 71 1016.1
20260903143723 89 316 0.0 0.0 0.00 0.00 0.00 71 1016.1
20260903143222 89 315 0.0 1.7 0.00 0.00 0.00 71 1016.1
20260903143157 89 315 0.9 1.7 0.00 0.00 0.00 71 1016.1
20260903142723 88 298 0.0 1.7 0.00 0.00 0.00 69 1016.2
20260903142242 88 322 0.9 1.7 0.00 0.00 0.00 70 1016.2
20260903142223 88 320 0.0 0.9 0.00 0.00 0.00 69 1016.2
20260903142200 88 322 0.9 1.7 0.00 0.00 0.00 70 1016.2
20260903141723 87 0 0.0 0.0 0.00 0.00 0.00 71 1016.2
20260903141224 87 0 0.0 0.0 0.00 0.00 0.00 69 1016.4
20260903141206 87 0 0.0 0.0 0.00 0.00 0.00 69 1016.4
20260903140722 87 0 0.0 0.0 0.00 0.00 0.00 76 1016.4
20260903140223 87 143 0.0 0.0 0.00 0.00 0.00 79 1016.4
20260903140155 87 143 0.0 0.0 0.00 0.00 0.00 78 1016.4
20260903135724 86 143 0.0 0.0 0.00 0.00 0.00 78 1016.5
20260903135222 86 143 0.0 0.0 0.00 0.00 0.00 77 1016.5
20260903135157 85 143 0.0 0.0 0.00 0.00 0.00 80 1016.5
20260903134723 85 143 0.0 0.0 0.00 0.00 0.00 80 1016.5
20260903134223 84 143 0.0 0.0 0.00 0.00 0.00 81 1016.6
20260903134156 84 143 0.0 0.0 0.00 0.00 0.00 81 1016.6
20260903133722 83 143 0.0 0.0 0.00 0.00 0.00 81 1016.6
20260903133224 83 143 0.0 0.0 0.00 0.00 0.00 83 1016.6
20260903133157 83 143 0.0 0.0 0.00 0.00 0.00 83 1016.6
20260903132722 82 143 0.0 0.0 0.00 0.00 0.00 83 1016.6
20260903132223 82 143 0.0 0.0 0.00 0.00 0.00 85 1016.6
20260903132157 82 143 0.0 0.0 0.00 0.00 0.00 85 1016.6
20260903131724 81 143 0.0 0.0 0.00 0.00 0.00 85 1016.6
20260903131223 81 143 0.0 0.0 0.00 0.00 0.00 85 1016.6
20260903131155 81 65 0.0 0.0 0.00 0.00 0.00 86 1016.6
20260903130723 80 65 0.0 0.0 0.00 0.00 0.00 86 1016.6
20260903130223 79 65 0.0 0.0 0.00 0.00 0.00 86 1016.6
20260903130157 79 65 0.0 0.0 0.00 0.00 0.00 86 1016.6
20260903125723 79 65 0.0 0.0 0.00 0.00 0.00 86 1016.6
20260903125224 79 65 0.0 0.0 0.00 0.00 0.00 87 1016.6
20260903125157 79 65 0.0 0.0 0.00 0.00 0.00 87 1016.6
20260903124722 78 65 0.0 0.0 0.00 0.00 0.00 88 1016.6
20260903124222 78 65 0.0 0.0 0.00 0.00 0.00 87 1016.6
20260903124158 78 65 0.0 0.0 0.00 0.00 0.00 87 1016.6
20260903123723 78 65 0.0 0.0 0.00 0.00 0.00 88 1016.6
20260903123223 77 65 0.0 0.0 0.00 0.00 0.00 88 1016.6
20260903123156 77 65 0.0 0.0 0.00 0.00 0.00 88 1016.6
20260903122722 77 76 0.0 0.0 0.00 0.00 0.00 89 1016.4
20260903122223 77 85 0.0 0.0 0.00 0.00 0.00 89 1016.4
20260903122155 77 93 0.0 0.0 0.00 0.00 0.00 89 1016.4
20260903121723 77 103 0.0 0.0 0.00 0.00 0.00 90 1016.4
20260903121222 76 103 0.0 0.0 0.00 0.00 0.00 90 1016.4
20260903121157 76 103 0.0 0.0 0.00 0.00 0.00 90 1016.4
20260903120722 76 136 0.0 0.0 0.00 0.00 0.00 90 1016.4
20260903120223 76 114 0.0 0.0 0.00 0.00 0.00 90 1016.4
20260903120157 76 114 0.0 0.0 0.00 0.00 0.00 90 1016.4
20260903115722 76 42 0.0 0.0 0.00 0.00 0.00 90 1016.3
20260903115222 76 42 0.0 0.9 0.00 0.00 0.00 89 1016.3
20260903115155 76 42 0.0 0.0 0.00 0.00 0.00 89 1016.3
20260903114723 76 42 0.0 0.0 0.00 0.00 0.00 89 1016.3
20260903114224 76 42 0.0 0.0 0.00 0.00 0.00 89 1016.0
20260903114157 76 42 0.0 0.0 0.00 0.00 0.00 89 1016.0
20260903113723 77 42 0.0 0.0 0.00 0.00 0.00 89 1016.0
20260903113222 77 42 0.0 0.0 0.00 0.00 0.00 89 1016.0
20260903113157 77 42 0.0 0.0 0.00 0.00 0.00 89 1016.0
20260903112723 77 42 0.0 0.0 0.00 0.00 0.00 89 1015.8
20260903112223 77 42 0.0 0.9 0.00 0.00 0.00 88 1015.8
20260903112156 77 42 0.9 0.9 0.00 0.00 0.00 88 1015.8
20260903111723 77 92 0.0 0.0 0.00 0.00 0.00 88 1015.8
20260903111224 77 92 0.0 0.0 0.00 0.00 0.00 89 1015.7
20260903111156 77 92 0.0 0.0 0.00 0.00 0.00 89 1015.7
20260903110722 77 92 0.0 0.0 0.00 0.00 0.00 89 1015.7
20260903110223 77 92 0.0 0.0 0.00 0.00 0.00 89 1015.7
20260903110156 77 92 0.0 0.0 0.00 0.00 0.00 89 1015.7
20260903105724 77 92 0.0 0.0 0.00 0.00 0.00 89 1015.7
20260903105222 77 92 0.0 1.7 0.00 0.00 0.00 88 1015.7
20260903105157 77 92 0.0 0.9 0.00 0.00 0.00 88 1015.7
20260903104723 77 92 0.9 1.7 0.00 0.00 0.00 88 1015.7
20260903104224 77 102 0.9 1.7 0.00 0.00 0.00 88 1015.7
20260903104156 77 97 0.0 0.0 0.00 0.00 0.00 88 1015.7
20260903103722 77 93 1.7 1.7 0.00 0.00 0.00 88 1015.7
20260903103224 77 93 0.9 1.7 0.00 0.00 0.00 88 1015.7
20260903103156 77 110 0.9 1.7 0.00 0.00 0.00 88 1015.7
20260903102723 77 85 0.9 1.7 0.00 0.00 0.00 88 1015.5
20260903102222 77 96 0.9 1.7 0.00 0.00 0.00 88 1015.5
20260903102157 77 103 0.9 2.6 0.00 0.00 0.00 88 1015.5
20260903101723 77 113 1.7 2.6 0.00 0.00 0.00 88 1015.5
20260903101224 77 80 0.9 0.9 0.00 0.00 0.00 88 1015.6
20260903101156 77 88 0.0 1.7 0.00 0.00 0.00 88 1015.6
20260903100722 77 66 1.7 1.7 0.00 0.00 0.00 88 1015.6
20260903100223 77 110 0.0 0.0 0.00 0.00 0.00 86 1015.6
20260903100158 77 116 0.0 0.0 0.00 0.00 0.00 86 1015.6
20260903095724 77 127 0.9 1.7 0.00 0.00 0.00 86 1015.4
20260903095222 78 106 0.9 0.9 0.00 0.00 0.00 85 1015.4
20260903095156 78 117 0.9 0.9 0.00 0.00 0.00 85 1015.4
20260903094723 78 143 0.9 1.7 0.00 0.00 0.00 85 1015.4
20260903094223 78 136 0.0 0.0 0.00 0.00 0.00 85 1015.3
20260903094155 78 131 0.0 0.0 0.00 0.00 0.00 85 1015.3
20260903093722 78 131 0.0 0.9 0.00 0.00 0.00 85 1015.3
20260903093223 78 106 1.7 1.7 0.00 0.00 0.00 85 1015.3
20260903093155 78 120 0.0 1.7 0.00 0.00 0.00 85 1015.3
20260903092722 78 112 1.7 1.7 0.00 0.00 0.00 85 1015.3
20260903092223 78 104 0.0 0.0 0.00 0.00 0.00 85 1015.3
20260903092156 78 107 0.0 0.0 0.00 0.00 0.00 85 1015.3
20260903091724 78 112 0.0 0.0 0.00 0.00 0.00 85 1015.3
20260903091222 78 114 0.0 0.0 0.00 0.00 0.00 85 1015.3
20260903091155 78 80 0.0 0.0 0.00 0.00 0.00 85 1015.3
20260903090723 78 80 0.0 0.0 0.00 0.00 0.00 85 1015.3
20260903090224 78 80 0.0 0.0 0.00 0.00 0.00 86 1015.3
20260903090157 78 80 0.0 0.0 0.00 0.00 0.00 86 1015.3
20260903085723 78 80 0.0 0.0 0.00 0.00 0.00 86 1015.3
20260903085223 78 80 0.0 0.0 0.00 0.00 0.00 86 1015.3
20260903085157 78 80 0.0 0.0 0.00 0.00 0.00 86 1015.3
20260903084724 78 82 0.0 0.0 0.00 0.00 0.00 86 1015.3
20260903084222 78 80 0.0 0.0 0.00 0.00 0.00 86 1015.3
20260903084155 78 80 0.0 0.0 0.00 0.00 0.00 86 1015.3
20260903083723 78 80 0.0 0.0 0.00 0.00 0.00 87 1015.3
20260903083224 78 80 0.0 0.0 0.00 0.00 0.00 87 1015.3
20260903083200 78 80 0.0 0.0 0.00 0.00 0.00 87 1015.3
20260903082722 78 80 0.0 0.0 0.00 0.00 0.00 87 1015.2
20260903082223 78 80 0.0 0.0 0.00 0.00 0.00 86 1015.2
20260903082156 78 80 0.0 0.0 0.00 0.00 0.00 86 1015.2
20260903081723 78 80 0.0 0.0 0.00 0.00 0.00 86 1015.2
20260903081222 78 80 0.0 0.0 0.00 0.00 0.00 85 1015.0
20260903081156 78 80 0.0 0.0 0.00 0.00 0.00 85 1015.0
20260903080723 78 80 0.0 0.0 0.00 0.00 0.00 85 1015.0
20260903080223 79 80 0.0 0.0 0.00 0.00 0.00 85 1015.0
20260903080156 79 80 0.0 0.0 0.00 0.00 0.00 85 1015.0
20260903075722 79 80 0.0 0.0 0.00 0.00 0.00 84 1015.1
20260903075223 79 80 0.0 0.0 0.00 0.00 0.00 85 1015.1
20260903075155 79 80 0.0 0.0 0.00 0.00 0.00 85 1015.1
20260903074724 79 80 0.0 0.0 0.00 0.00 0.00 85 1015.1
20260903074222 79 80 0.0 0.0 0.00 0.00 0.00 86 1015.2
20260903074155 79 80 0.0 0.0 0.00 0.00 0.00 86 1015.2
20260903073723 79 80 0.0 0.0 0.00 0.00 0.00 86 1015.2
20260903073223 79 80 0.0 0.0 0.00 0.00 0.00 87 1015.2
20260903073156 79 80 0.0 0.0 0.00 0.00 0.00 88 1015.2
20260903072722 79 80 0.0 0.0 0.00 0.00 0.00 88 1015.3
20260903072223 79 82 0.0 0.0 0.00 0.00 0.00 87 1015.3
20260903072155 79 80 0.0 0.0 0.00 0.00 0.00 87 1015.3
20260903071723 79 80 0.0 0.0 0.00 0.00 0.00 87 1015.3
20260903071222 79 80 0.0 0.0 0.00 0.00 0.00 87 1015.3
20260903071157 79 80 0.0 0.0 0.00 0.00 0.00 87 1015.3
20260903070723 79 80 0.0 0.0 0.00 0.00 0.00 86 1015.3
20260903070223 79 80 0.0 0.0 0.00 0.00 0.00 86 1015.3
20260903070156 79 80 0.0 0.0 0.00 0.00 0.00 86 1015.3
20260903065722 80 80 0.0 0.0 0.00 0.00 0.00 86 1015.2
20260903065223 80 80 0.0 0.0 0.00 0.00 0.00 85 1015.2
20260903065156 80 80 0.0 0.0 0.00 0.00 0.00 85 1015.2
20260903064723 80 80 0.0 0.0 0.00 0.00 0.00 85 1015.2
20260903064222 80 80 0.0 0.0 0.00 0.00 0.00 83 1015.2
20260903064157 80 80 0.0 0.0 0.00 0.00 0.00 83 1015.2
20260903063724 80 80 0.0 0.0 0.00 0.00 0.00 82 1015.2
20260903063222 80 80 0.0 0.0 0.00 0.00 0.00 82 1015.2
20260903063155 80 80 0.0 0.0 0.00 0.00 0.00 82 1015.2
20260903062723 80 80 0.0 0.0 0.00 0.00 0.00 83 1015.2
20260903062224 80 80 0.0 0.0 0.00 0.00 0.00 84 1015.2
20260903062156 80 80 0.0 0.0 0.00 0.00 0.00 84 1015.2
20260903061722 81 80 0.0 0.0 0.00 0.00 0.00 84 1015.2
20260903061223 81 80 0.0 0.0 0.00 0.00 0.00 84 1015.2
20260903061156 81 80 0.0 0.0 0.00 0.00 0.00 85 1015.2
20260903060724 81 80 0.0 0.0 0.00 0.00 0.00 85 1015.2
20260903060222 81 80 0.0 0.0 0.00 0.00 0.00 84 1015.2
20260903060155 81 80 0.0 0.0 0.00 0.00 0.00 84 1015.2
20260903055723 81 80 0.0 0.0 0.00 0.00 0.00 84 1015.3
20260903055223 81 80 0.0 0.0 0.00 0.00 0.00 83 1015.3
20260903055156 81 80 0.0 0.0 0.00 0.00 0.00 83 1015.3
20260903054723 81 80 0.0 0.0 0.00 0.00 0.00 83 1015.3
20260903054223 81 80 0.0 0.0 0.00 0.00 0.00 82 1015.4
20260903054156 81 80 0.0 0.0 0.00 0.00 0.00 82 1015.4
20260903053723 81 80 0.0 0.0 0.00 0.00 0.00 81 1015.4
20260903053222 81 80 0.0 0.0 0.00 0.00 0.00 80 1015.4
20260903053157 81 80 0.0 0.0 0.00 0.00 0.00 80 1015.4
20260903052723 81 80 0.0 0.0 0.00 0.00 0.00 79 1015.4
20260903052223 81 80 0.0 0.0 0.00 0.00 0.00 78 1015.4
20260903052156 81 80 0.0 0.0 0.00 0.00 0.00 78 1015.4
20260903051722 81 80 0.0 0.0 0.00 0.00 0.00 76 1015.4
20260903051223 81 80 0.0 0.9 0.00 0.00 0.00 76 1015.4
20260903051156 81 82 0.9 0.9 0.00 0.00 0.00 76 1015.4
20260903050723 81 80 0.0 0.9 0.00 0.00 0.00 73 1015.4
20260903050222 81 80 0.0 0.9 0.00 0.00 0.00 73 1015.4
20260903050157 81 80 0.9 0.9 0.00 0.00 0.00 73 1015.4
20260903045723 81 72 0.0 0.9 0.00 0.00 0.00 73 1015.5
20260903045223 81 65 0.9 1.7 0.00 0.00 0.00 72 1015.5
20260903045156 81 58 0.9 1.7 0.00 0.00 0.00 72 1015.5
20260903044722 81 68 1.7 1.7 0.00 0.00 0.00 73 1015.5